| time (UTC) | temp F | wind direction | speed knots | gust knots | rain 1hr in | rain 24hr in | rain mn in | humidity % | barometer mb |
| 20260506131507 | 75 | 184 | 0.0 | 2.6 | 0.00 | 0.00 | 0.00 | 87 | 1008.9 |
| 20260506130121 | 75 | 185 | 0.0 | 1.7 | 0.00 | 0.00 | 0.00 | 87 | 1008.9 |
| 20260506124526 | 74 | 185 | 0.0 | 1.7 | 0.00 | 0.00 | 0.00 | 87 | 1008.7 |
| 20260506123036 | 74 | 185 | 0.0 | 2.6 | 0.00 | 0.00 | 0.00 | 87 | 1008.6 |
| 20260506121509 | 74 | 186 | 0.0 | 1.7 | 0.00 | 0.00 | 0.00 | 87 | 1008.7 |
| 20260506120022 | 74 | 186 | 0.0 | 1.7 | 0.00 | 0.00 | 0.00 | 87 | 1008.7 |
| 20260506114546 | 74 | 186 | 0.0 | 4.3 | 0.00 | 0.00 | 0.00 | 87 | 1008.6 |
| 20260506113013 | 74 | 171 | 1.7 | 4.3 | 0.00 | 0.00 | 0.00 | 87 | 1008.4 |
| 20260506111551 | 75 | 198 | 0.9 | 3.5 | 0.00 | 0.00 | 0.00 | 87 | 1008.2 |
| 20260506031548 | 77 | 190 | 2.6 | 8.7 | 0.00 | 0.00 | 0.00 | 80 | 1006.8 |
| 20260506030044 | 77 | 169 | 3.5 | 11.3 | 0.00 | 0.00 | 0.00 | 80 | 1006.6 |
| 20260506024532 | 78 | 161 | 4.3 | 8.7 | 0.00 | 0.00 | 0.00 | 80 | 1006.3 |
| 20260506023014 | 78 | 147 | 2.6 | 10.4 | 0.00 | 0.00 | 0.00 | 79 | 1006.2 |
| 20260506021558 | 78 | 181 | 2.6 | 7.8 | 0.00 | 0.00 | 0.00 | 79 | 1006.1 |
| 20260506020059 | 78 | 156 | 2.6 | 6.1 | 0.00 | 0.00 | 0.00 | 79 | 1006.2 |
| 20260506014547 | 78 | 159 | 2.6 | 7.0 | 0.00 | 0.00 | 0.00 | 79 | 1006.0 |
| 20260506013043 | 79 | 155 | 1.7 | 9.6 | 0.00 | 0.00 | 0.00 | 78 | 1005.8 |
| 20260506011523 | 79 | 186 | 3.5 | 7.8 | 0.00 | 0.00 | 0.00 | 78 | 1005.5 |
| 20260506010024 | 79 | 140 | 3.5 | 10.4 | 0.00 | 0.00 | 0.00 | 78 | 1005.2 |
| 20260506004603 | 80 | 152 | 6.1 | 12.2 | 0.00 | 0.00 | 0.00 | 78 | 1004.8 |
| 20260506003132 | 80 | 186 | 6.1 | 16.5 | 0.00 | 0.00 | 0.00 | 78 | 1004.6 |
| 20260506001555 | 81 | 202 | 5.2 | 14.8 | 0.00 | 0.00 | 0.00 | 78 | 1004.6 |
| 20260506000027 | 81 | 150 | 4.3 | 11.3 | 0.00 | 0.00 | 0.00 | 78 | 1004.6 |
| 20260505234534 | 82 | 224 | 6.1 | 14.8 | 0.00 | 0.00 | 0.00 | 78 | 1004.4 |
| 20260505233005 | 83 | 181 | 5.2 | 13.0 | 0.00 | 0.00 | 0.00 | 79 | 1004.2 |
| 20260505231548 | 83 | 182 | 7.0 | 13.0 | 0.00 | 0.00 | 0.00 | 79 | 1004.2 |
| 20260505230037 | 83 | 210 | 5.2 | 13.9 | 0.00 | 0.00 | 0.00 | 79 | 1004.3 |
| 20260505224532 | 84 | 197 | 7.0 | 13.0 | 0.00 | 0.00 | 0.00 | 80 | 1004.3 |
| 20260505223001 | 84 | 184 | 5.2 | 15.6 | 0.00 | 0.00 | 0.00 | 80 | 1004.4 |
| 20260505221550 | 84 | 178 | 3.5 | 14.8 | 0.00 | 0.00 | 0.00 | 80 | 1004.5 |
| 20260505220017 | 84 | 213 | 7.0 | 18.2 | 0.00 | 0.00 | 0.00 | 81 | 1004.5 |
| 20260505214635 | 84 | 197 | 6.1 | 13.0 | 0.00 | 0.00 | 0.00 | 81 | 1004.7 |
| 20260505213039 | 84 | 158 | 7.0 | 13.9 | 0.00 | 0.00 | 0.00 | 82 | 1004.8 |
| 20260505211539 | 84 | 189 | 6.1 | 12.2 | 0.00 | 0.00 | 0.00 | 82 | 1005.0 |
| 20260505210034 | 84 | 248 | 6.1 | 15.6 | 0.00 | 0.00 | 0.00 | 83 | 1005.2 |
| 20260505204517 | 84 | 248 | 7.0 | 16.5 | 0.00 | 0.00 | 0.00 | 83 | 1005.7 |
| 20260505203047 | 83 | 221 | 7.0 | 16.5 | 0.00 | 0.00 | 0.00 | 84 | 1006.0 |
| 20260505201500 | 84 | 250 | 10.4 | 17.4 | 0.00 | 0.00 | 0.00 | 84 | 1006.0 |
| 20260505200019 | 83 | 223 | 9.6 | 19.1 | 0.00 | 0.00 | 0.00 | 85 | 1006.3 |
| 20260505194521 | 82 | 222 | 7.8 | 20.9 | 0.00 | 0.00 | 0.00 | 85 | 1006.5 |
| 20260505193031 | 82 | 193 | 12.2 | 21.7 | 0.00 | 0.00 | 0.00 | 85 | 1006.6 |
| 20260505191606 | 82 | 196 | 9.6 | 23.5 | 0.00 | 0.00 | 0.00 | 86 | 1006.7 |
| 20260505190106 | 81 | 188 | 7.0 | 15.6 | 0.00 | 0.00 | 0.00 | 86 | 1006.9 |
| 20260505184605 | 81 | 186 | 4.3 | 20.0 | 0.00 | 0.00 | 0.00 | 86 | 1007.0 |
| 20260505183110 | 80 | 248 | 5.2 | 18.2 | 0.00 | 0.00 | 0.00 | 86 | 1007.0 |
| 20260505181544 | 79 | 239 | 5.2 | 16.5 | 0.00 | 0.00 | 0.00 | 86 | 1007.1 |
| 20260505180001 | 78 | 218 | 7.0 | 19.1 | 0.00 | 0.00 | 0.00 | 86 | 1007.1 |
| 20260505174607 | 78 | 183 | 4.3 | 19.1 | 0.00 | 0.00 | 0.00 | 86 | 1007.2 |
| 20260505173052 | 77 | 239 | 7.0 | 15.6 | 0.00 | 0.00 | 0.00 | 86 | 1007.5 |
| 20260505171519 | 76 | 180 | 3.5 | 13.9 | 0.00 | 0.00 | 0.00 | 86 | 1007.6 |
| 20260505170104 | 76 | 226 | 4.3 | 13.0 | 0.00 | 0.00 | 0.00 | 86 | 1007.8 |
| 20260505164552 | 76 | 130 | 4.3 | 14.8 | 0.00 | 0.00 | 0.00 | 86 | 1007.7 |
| 20260505163026 | 75 | 236 | 6.1 | 17.4 | 0.00 | 0.00 | 0.00 | 86 | 1007.8 |
| 20260505161508 | 75 | 205 | 7.0 | 14.8 | 0.00 | 0.00 | 0.00 | 85 | 1007.7 |
| 20260505153036 | 73 | 208 | 5.2 | 13.0 | 0.00 | 0.00 | 0.00 | 85 | 1008.1 |
| 20260505151539 | 73 | 232 | 6.1 | 17.4 | 0.00 | 0.00 | 0.00 | 85 | 1008.0 |